星链-31939 (STARLINK-31939 )

导读

STARLINK-31939是美国SpaceX星链互联网卫星项目中的一颗卫星,于北京时间2024年6月8日发射入轨,属于星链星座扩容部署的组成部分。星链项目旨在构建全球卫星互联网星座,为全球范围内提供低延迟宽带互联网服务,该卫星加入后进一步扩充了星链星座的在轨规模。

Basic Information
目录编号:
60026
目录名称:
STARLINK-31939
国际标识:
2024-111L
轨道中心:
EARTH
卫星名称:
星链-31939
卫星全名:
星链-31939 (STARLINK-31939 )
卫星状态:
在轨 (已飞行826 天)
发射日期:
2024-06-08 UTC
国别 :
美国 (US)
星等 :
--
This satellite is enrolled in the Space Conjunction Data Service (SCDS) and the current flight risk assessment level is: No High Risk
Orbit Information
数据来源 国际轨道数据
星历时间: 2026-09-11T19:49:02+0800
14小时前
查看轨道信息
半长轴: 6840.885km
偏心率: 0.0001316
轨道倾角: 53.161°
近地点辐角 75.159°
升交点赤经 291.676°
平近点角 284.956°
近地点: 461.847km
远地点: 463.649km
周期: 93.849分钟
每日圈数: 15.343852
Detailed Information
固有亮度:
5
最大亮度:
1.5
卫星平台:
Starlink v2.0 mini
覆盖范围:
全球
运营商:
太空探索技术公司
运营商所在国:
美国
制造商(研发单位):
太空探索技术公司
制造商所在国:
美国
使用方式:
暂无
Satellite Introduction
星链(Starlink)计划是由太空探索技术公司(SpaceX)提出的一个巨型低轨卫星互联网星座项目,计划在2019年至2024年间在太空搭建由约1.2万颗卫星组成的“星链”网络,其中1584颗将部署在地球上空550千米处的近地轨道,并从2020年开始工作。该卫星仍在工作。
2D Orbit Map
3D Orbit Map
Orbit Altitude Analysis Chart
Orbit Inclination Analysis Chart
Orbit Comprehensive Analysis Chart
View Comprehensive Chart
Conjunction Data List
Event ID Objects TCA Miss Dist (km) Collision Risk Probability Collision Risk Index (CRI) Action
CDM_260913-224506-002606-689222
2026-09-13T
22:45:30+0000
1.906 km
极远距离
1.719216E-6 低风险 0.4
CDM_260914-024006-002606-689221
2026-09-14T
02:40:00+0000
2.195 km
极远距离
1.24337E-6 低风险 0.37
Miss Distance Evolution Trend with All Objects
Collision Probability Evolution Trend with All Objects